Wind_Speed
35 35 36 36 36 37 38 38 38 39 39 38 38 37 37 37 37 37 37 37 37 37 37 37 37 37 36 36 36 36 35 34 33 33 32 31 30 29 29 30 29 29 28
37 38 38 38 39 39 40 40 40 40 41 40 40 39 38 38 39 39 39 39 39 39 39 40 40 39 39 38 38 38 38 37 36 35 34 33 33 32 32 31 32 31 30
40 40 40 40 41 42 42 42 42 42 42 42 42 42 41 40 41 40 40 41 41 41 41 42 42 42 42 41 41 41 40 40 39 38 37 37 36 36 35 34 34 34 33
42 42 43 42 42 43 43 44 45 45 44 44 43 43 43 43 43 43 43 43 43 44 44 44 45 44 44 44 44 44 44 43 43 42 41 40 40 40 38 37 37 36 36
43 44 44 45 44 45 45 46 47 46 46 45 46 46 46 46 46 46 46 46 46 46 47 47 47 47 47 47 47 47 47 47 46 45 44 43 43 43 42 41 40 39 38
45 45 46 47 47 47 47 48 48 48 48 48 48 48 49 49 49 49 49 49 49 50 50 50 50 50 50 50 50 49 49 49 49 48 47 46 46 45 45 44 43 42 41
46 47 47 48 49 49 49 49 50 50 50 50 50 50 51 52 52 52 52 52 52 53 53 53 52 53 53 52 52 52 52 52 51 51 50 49 48 48 47 47 46 45 44
48 48 48 49 50 51 51 52 52 52 52 52 53 53 53 54 54 54 54 54 54 55 55 55 55 55 55 55 54 54 54 53 53 53 52 52 51 51 50 49 48 48 47
49 50 49 50 50 51 52 53 53 54 54 55 55 55 56 56 55 55 56 55 56 56 57 57 57 58 58 58 57 56 56 56 55 55 55 54 54 54 53 52 51 51 50
50 51 50 51 51 52 52 53 53 54 55 56 56 57 58 58 57 56 55 56 57 57 57 58 59 60 60 60 60 59 59 58 58 57 57 57 56 56 55 55 54 53 53
50 51 51 51 52 52 53 54 54 55 55 55 56 57 58 58 59 59 57 57 58 58 59 59 61 62 62 61 61 61 60 60 60 60 59 59 59 58 58 57 57 56 55
51 51 52 52 53 53 53 53 54 55 55 56 57 58 58 59 59 60 60 59 59 59 59 59 60 61 62 62 63 63 62 61 61 61 62 61 61 61 60 60 59 58 58
51 52 52 52 52 52 52 52 53 55 56 56 56 57 58 59 60 61 61 60 59 58 58 59 59 60 62 62 63 63 63 63 63 63 63 63 63 62 62 63 62 61 60
51 52 52 52 51 51 50 51 52 54 55 56 56 56 57 58 58 59 59 60 59 58 58 57 58 59 60 61 62 63 63 64 64 64 64 64 64 64 64 65 64 64 63
52 52 52 52 52 51 51 51 51 52 54 55 56 56 56 57 57 57 58 59 59 58 57 56 57 58 59 60 60 61 62 62 63 64 64 64 64 65 65 66 66 66 65
51 51 52 53 52 52 52 51 51 51 52 53 54 55 56 56 56 56 56 57 58 58 57 56 56 57 58 58 59 60 60 61 62 63 63 64 65 66 66 66 67 69 68
50 50 52 52 52 51 52 52 52 52 53 53 54 54 54 55 56 56 56 55 55 56 56 55 56 56 57 58 59 59 60 60 61 62 63 64 65 65 66 66 67 69 70
50 50 51 51 51 51 51 51 52 53 53 52 52 52 52 53 53 54 54 54 54 54 55 55 55 56 57 57 58 58 59 60 59 60 61 62 63 64 65 66 67 68 69
49 49 49 49 50 50 51 51 51 52 52 51 51 50 51 51 51 51 52 53 53 54 54 54 54 54 55 56 57 57 58 59 59 59 60 61 63 65 65 65 67 68 69
48 48 48 49 49 50 50 51 51 50 51 50 50 50 50 50 50 50 51 51 52 53 53 53 53 53 53 54 55 56 56 57 57 58 59 61 62 64 65 65 66 68 69
47 48 48 49 49 49 50 49 49 49 49 49 49 49 49 49 50 50 50 50 51 51 51 51 51 51 52 53 53 54 55 55 57 58 59 60 62 63 64 65 66 67 68
47 47 48 48 48 48 48 47 47 47 47 48 48 48 48 49 49 50 50 49 49 49 48 48 49 49 50 51 52 53 53 54 55 57 58 59 60 61 62 63 64 65 66
45 46 46 46 46 46 46 46 46 46 46 47 47 47 47 47 48 48 48 48 48 48 48 47 47 47 48 50 51 52 53 53 53 54 55 56 57 58 59 60 62 63 64
44 44 44 44 44 44 45 45 45 45 45 45 45 45 45 45 45 45 45 46 46 47 46 46 46 46 47 48 49 50 51 51 51 52 53 53 54 55 56 57 58 60 61
42 42 43 43 43 43 43 44 44 44 44 44 44 43 43 43 43 43 43 44 44 45 45 45 46 46 46 47 48 48 48 49 48 49 50 51 51 52 53 54 55 57 58
41 41 42 42 42 42 42 42 42 42 41 41 41 41 41 41 41 41 41 41 42 43 43 44 45 45 45 46 46 47 47 47 47 46 47 49 49 50 51 52 53 54 55
Wind_Direction
266 265 264 263 263 261 261 262 261 262 262 262 262 262 263 261 261 260 259 260 260 260 259 258 256 256 257 257 256 255 255 256 256 255 255 254 254 254 254 253 253 253 252
266 265 265 264 264 263 263 263 262 262 261 262 262 262 262 263 262 261 260 260 260 260 260 258 256 257 257 257 256 256 255 255 256 255 255 255 255 254 254 253 253 253 252
266 266 265 265 265 265 264 264 263 262 262 262 262 262 262 263 263 262 262 261 261 261 260 259 257 257 257 257 256 255 255 256 255 255 254 255 255 254 254 253 253 252 252
267 266 266 266 266 265 265 265 265 264 264 263 263 263 263 264 263 262 262 262 262 261 260 260 259 257 257 257 256 255 255 255 255 255 255 254 254 254 254 253 253 252 251
268 268 267 266 266 266 266 266 266 265 265 265 264 264 264 264 265 264 263 263 262 262 261 260 259 257 256 257 256 256 255 255 255 255 255 254 254 253 253 253 252 251 251
269 269 269 267 266 266 266 267 267 266 266 266 266 266 266 266 266 265 264 263 262 262 261 260 259 258 257 256 256 255 255 255 254 254 254 254 253 252 252 252 252 251 251
270 270 270 269 268 267 268 268 267 267 267 267 267 267 267 267 267 266 266 265 263 262 262 260 259 259 257 256 256 255 255 255 254 254 254 253 253 252 251 251 251 251 251
270 270 270 270 270 269 269 269 268 267 267 268 268 268 267 266 266 266 266 265 264 263 262 261 260 260 258 256 256 256 255 255 254 254 253 253 253 252 251 251 251 251 250
271 270 270 270 271 271 270 269 268 268 268 269 269 269 268 267 265 265 265 265 264 263 262 261 260 260 259 257 256 255 255 255 254 254 254 253 252 252 252 251 251 251 251
272 272 270 270 271 272 272 270 268 268 269 270 270 270 269 269 267 265 264 264 264 263 262 261 261 260 260 258 256 256 255 255 254 254 253 253 252 252 252 251 250 250 250
273 272 271 272 272 273 273 271 270 269 270 271 270 270 269 269 268 267 264 264 264 263 263 262 261 260 259 258 257 256 255 254 254 254 253 252 252 252 251 251 251 250 250
274 273 273 273 273 274 274 272 271 270 270 271 270 269 268 268 268 268 266 264 263 263 263 262 260 260 258 257 256 255 255 254 254 253 253 253 252 251 251 251 250 249 249
275 275 274 274 275 275 274 274 273 272 272 271 270 269 268 268 268 267 266 265 264 262 261 261 260 259 259 258 256 256 255 254 254 253 253 253 252 251 250 250 250 249 249
276 277 276 276 276 275 274 274 274 273 273 271 270 269 269 269 268 268 267 266 265 263 261 260 260 259 259 258 257 256 256 255 254 253 253 252 252 251 250 249 249 248 248
277 277 277 277 276 275 275 275 275 275 274 272 271 270 269 269 269 268 267 267 266 263 261 261 260 259 259 259 258 257 257 256 254 253 252 252 252 251 251 250 249 248 248
278 278 278 277 276 276 275 275 276 276 275 274 272 272 270 269 269 268 267 267 266 265 263 261 260 259 260 259 258 257 256 255 254 254 253 252 252 252 251 249 249 248 248
279 280 279 278 276 275 275 276 277 276 275 274 273 272 271 270 269 269 268 267 266 265 263 262 261 261 260 259 258 257 256 255 254 254 254 253 252 252 251 250 249 248 247
280 280 280 278 277 276 276 277 277 277 276 274 273 272 272 271 271 270 268 267 266 265 264 263 262 262 261 259 258 257 257 256 255 255 255 254 252 252 251 250 250 248 247
280 280 280 279 278 277 278 279 278 277 276 275 273 273 273 272 271 269 269 268 267 267 266 265 264 263 262 260 258 257 257 257 257 256 256 255 253 253 252 252 251 250 249
280 280 280 280 280 281 281 281 279 278 276 275 274 275 274 273 271 270 269 269 268 268 267 266 265 263 262 261 259 258 258 258 258 258 257 256 255 255 255 254 254 252 252
281 282 281 281 281 282 282 281 280 278 276 275 275 275 274 273 272 272 271 270 269 268 268 267 266 264 263 262 260 260 260 260 260 260 259 258 257 257 257 256 255 254 253
285 284 282 282 282 282 283 281 280 278 277 276 275 275 275 275 273 273 272 270 270 270 268 267 266 264 264 262 261 262 261 261 261 261 260 259 258 257 257 256 255 254 253
286 286 285 283 282 281 281 280 279 279 278 277 275 274 274 274 274 272 272 271 270 269 268 267 266 265 264 263 263 263 263 262 262 262 261 259 258 258 257 257 256 255 254
287 288 287 285 282 282 280 280 280 279 278 277 276 275 275 274 274 272 272 271 270 269 268 268 267 267 266 265 265 265 265 264 263 263 263 262 259 258 257 256 255 254 254
287 288 287 286 284 282 281 279 279 279 278 277 277 276 274 274 273 272 272 272 271 269 269 269 268 267 267 267 267 266 266 265 264 264 263 263 260 258 257 256 255 254 255
287 287 288 287 285 284 282 281 280 280 279 278 277 276 275 274 273 273 273 272 271 270 269 269 269 267 266 267 267 267 267 266 265 264 263 263 261 259 257 257 256 255 255
Height
5751 5752 5753 5753 5754 5756 5757 5758 5760 5761 5763 5764 5766 5768 5769 5771 5773 5774 5776 5777 5779 5780 5782 5783 5785 5786 5788 5790 5792 5793 5795 5797 5799 5800 5802 5803 5805 5806 5808 5809 5811 5812 5814
5742 5743 5744 5745 5745 5746 5747 5749 5750 5752 5753 5755 5756 5758 5760 5761 5763 5765 5766 5768 5769 5771 5772 5774 5775 5777 5779 5781 5783 5784 5786 5788 5790 5792 5794 5796 5797 5799 5801 5802 5804 5805 5807
5733 5734 5734 5735 5736 5736 5737 5738 5739 5741 5743 5744 5746 5748 5749 5751 5753 5754 5756 5757 5759 5760 5762 5764 5765 5767 5769 5771 5773 5775 5777 5779 5781 5783 5785 5787 5789 5791 5793 5795 5796 5798 5800
5723 5723 5724 5725 5725 5726 5727 5727 5728 5730 5732 5734 5735 5737 5738 5740 5741 5743 5745 5746 5748 5749 5751 5753 5754 5756 5758 5760 5763 5765 5767 5769 5771 5773 5776 5778 5780 5782 5784 5786 5788 5790 5792
5712 5712 5713 5713 5714 5715 5715 5716 5717 5718 5720 5722 5724 5725 5727 5728 5729 5731 5732 5734 5735 5737 5739 5740 5742 5744 5746 5749 5751 5753 5755 5758 5760 5762 5765 5767 5770 5772 5774 5777 5779 5781 5783
5700 5700 5701 5701 5702 5703 5703 5704 5705 5706 5707 5709 5711 5713 5714 5715 5716 5718 5719 5720 5722 5723 5725 5727 5729 5731 5733 5736 5738 5741 5743 5746 5748 5751 5753 5756 5758 5761 5764 5766 5769 5771 5774
5689 5688 5688 5689 5689 5690 5691 5692 5692 5693 5695 5696 5698 5700 5701 5701 5702 5703 5705 5706 5707 5708 5710 5712 5714 5717 5719 5722 5725 5727 5730 5733 5736 5738 5741 5744 5747 5749 5752 5755 5758 5760 5763
5676 5676 5675 5676 5676 5676 5677 5678 5678 5680 5681 5682 5683 5685 5687 5688 5688 5688 5689 5690 5691 5693 5695 5697 5699 5701 5704 5707 5710 5713 5716 5719 5722 5725 5728 5731 5733 5737 5740 5743 5746 5749 5752
5663 5662 5662 5662 5662 5662 5662 5663 5664 5665 5666 5667 5667 5668 5670 5671 5673 5674 5673 5674 5675 5676 5678 5680 5682 5685 5687 5690 5694 5697 5700 5704 5707 5710 5713 5716 5720 5723 5726 5730 5733 5736 5740
5649 5649 5648 5648 5648 5648 5648 5648 5648 5650 5651 5651 5651 5651 5652 5653 5654 5657 5658 5658 5658 5659 5661 5663 5665 5668 5670 5673 5676 5680 5683 5687 5691 5694 5697 5701 5705 5708 5712 5716 5719 5723 5726
5636 5635 5634 5634 5634 5633 5633 5632 5633 5633 5634 5634 5635 5635 5635 5635 5636 5638 5641 5642 5642 5643 5644 5645 5647 5649 5652 5656 5659 5662 5666 5670 5674 5677 5681 5684 5688 5693 5696 5700 5704 5708 5712
5622 5621 5621 5620 5619 5619 5618 5617 5617 5617 5617 5618 5618 5618 5618 5619 5619 5619 5622 5624 5626 5627 5627 5628 5629 5631 5634 5637 5641 5645 5649 5652 5656 5660 5664 5667 5671 5676 5680 5684 5688 5692 5697
5609 5608 5607 5606 5605 5604 5603 5602 5601 5601 5601 5601 5601 5601 5601 5601 5601 5602 5603 5605 5607 5609 5610 5611 5611 5613 5615 5619 5622 5626 5631 5635 5638 5642 5646 5650 5654 5658 5663 5667 5671 5676 5680
5596 5594 5593 5591 5590 5589 5588 5587 5587 5586 5585 5584 5584 5584 5584 5584 5584 5584 5585 5586 5588 5591 5593 5595 5595 5596 5598 5601 5604 5608 5612 5616 5620 5624 5628 5632 5636 5641 5644 5649 5654 5659 5663
5583 5581 5579 5577 5576 5575 5574 5573 5572 5571 5569 5569 5568 5567 5567 5567 5566 5566 5567 5568 5570 5572 5576 5578 5578 5579 5580 5583 5586 5590 5594 5597 5601 5605 5609 5614 5618 5622 5626 5631 5635 5641 5646
5569 5567 5565 5563 5561 5560 5559 5558 5557 5555 5554 5553 5552 5551 5551 5550 5550 5550 5550 5550 5551 5553 5557 5561 5561 5562 5564 5566 5569 5572 5575 5579 5583 5586 5590 5595 5599 5603 5607 5611 5616 5622 5627
5556 5554 5551 5549 5547 5546 5545 5544 5542 5540 5539 5538 5536 5535 5535 5534 5534 5533 5533 5534 5535 5536 5538 5542 5543 5545 5546 5549 5551 5554 5557 5560 5564 5568 5572 5576 5580 5584 5588 5592 5596 5601 5607
5542 5540 5537 5535 5533 5531 5530 5529 5527 5525 5524 5523 5521 5520 5519 5518 5518 5518 5517 5518 5519 5519 5521 5524 5526 5527 5529 5530 5533 5536 5539 5542 5546 5550 5553 5556 5560 5564 5568 5572 5577 5582 5587
5529 5526 5524 5522 5520 5518 5516 5514 5512 5511 5509 5508 5507 5506 5504 5503 5503 5503 5502 5503 5503 5503 5505 5507 5509 5510 5511 5513 5515 5518 5521 5525 5528 5531 5534 5538 5541 5545 5549 5553 5558 5563 5568
5515 5513 5510 5508 5506 5504 5501 5500 5498 5496 5495 5493 5492 5491 5490 5489 5489 5488 5488 5488 5488 5488 5489 5490 5491 5493 5495 5496 5498 5501 5504 5507 5510 5513 5516 5519 5522 5526 5530 5535 5540 5544 5548
5502 5499 5497 5494 5492 5490 5487 5485 5483 5482 5481 5479 5478 5476 5475 5475 5474 5474 5473 5473 5473 5473 5473 5474 5475 5477 5478 5480 5482 5484 5487 5490 5493 5495 5498 5501 5505 5509 5511 5514 5518 5522 5527
5489 5486 5484 5481 5478 5476 5474 5471 5469 5468 5467 5465 5464 5463 5462 5461 5460 5459 5459 5459 5459 5458 5459 5459 5460 5461 5463 5464 5467 5468 5470 5474 5477 5480 5480 5483 5485 5489 5492 5495 5498 5502 5507
5476 5473 5470 5467 5465 5462 5459 5457 5455 5454 5453 5452 5451 5450 5449 5447 5446 5446 5446 5445 5445 5444 5445 5446 5446 5447 5449 5451 5452 5454 5454 5456 5459 5461 5462 5466 5468 5471 5474 5476 5480 5483 5486
5463 5460 5457 5454 5452 5449 5446 5444 5442 5441 5439 5438 5437 5436 5435 5434 5433 5433 5433 5432 5432 5431 5432 5432 5433 5434 5435 5435 5436 5438 5439 5441 5443 5444 5445 5448 5451 5453 5456 5458 5461 5464 5467
5451 5447 5444 5441 5439 5436 5433 5431 5429 5428 5427 5425 5424 5423 5422 5421 5421 5420 5420 5420 5419 5419 5419 5419 5420 5420 5421 5421 5422 5423 5424 5425 5428 5430 5429 5430 5433 5435 5439 5441 5444 5446 5449
5438 5435 5432 5429 5427 5424 5421 5419 5416 5415 5414 5413 5412 5411 5410 5409 5408 5407 5407 5407 5407 5407 5407 5406 5406 5407 5408 5408 5408 5409 5409 5410 5412 5415 5415 5415 5417 5419 5422 5426 5427 5429 5431